Location: Erlenbrunn
(49.1717°N, 7.6142°E)
Time: 04:54:27
(UTC+00:00)

CZ-4B R/B - Pass Details

Date: 25 November 2020
Orbit: 389 x 457 km, 97.6° (Epoch: 24 January)

Event Time Altitude Azimuth Distance (km) Brightness Sun altitude
Exits shadow 18:07:33 22° 320° (NW) 931 3.3 -23.9°
Maximum altitude 18:08:26 25° 292° (WNW) 842 3.3 -24.0°
Drops below altitude 10° 18:11:02 10° 234° (SW) 1,449 4.7 -24.4°
Sets 18:13:13 0° 221° (SW) 2,313 5.7 -24.8°
